Theta_e
304 305 305 306 306 307 308 308 307 305 306 307 308 308 308 309 310 310 314 322 317 314 316 317 319 323 326 327 328 328 325 326 327 327 326 326 326 327 328 328 327 326 326 326 326
298 298 300 300 302 304 305 306 308 309 308 306 306 306 307 307 308 309 319 319 317 316 315 313 315 322 327 327 328 327 325 325 324 324 325 325 327 327 327 327 327 325 326 326 325
303 302 301 299 297 298 300 302 304 305 306 308 308 306 305 305 305 310 314 316 320 322 318 313 313 322 327 326 328 326 327 326 325 326 327 327 328 328 326 324 327 327 329 328 326
303 303 303 302 302 301 298 298 298 300 302 304 306 309 309 306 305 312 313 315 316 318 318 313 312 325 323 324 326 326 326 327 326 326 327 326 328 328 328 327 328 329 329 327 325
302 302 302 302 302 302 302 302 301 298 299 300 304 305 308 309 305 312 315 316 315 316 317 315 313 324 324 323 325 325 325 327 327 327 327 327 327 327 328 329 329 328 326 326 327
301 301 301 301 302 302 302 302 302 302 301 299 301 304 308 310 310 310 310 314 314 310 317 315 313 316 318 316 319 322 325 325 326 326 325 326 325 326 327 328 327 327 327 327 326
300 300 301 301 301 301 301 301 301 302 302 302 300 305 308 309 310 310 309 309 311 310 310 316 313 316 317 316 317 317 316 315 317 318 319 321 321 322 324 325 325 325 326 326 326
300 300 300 301 301 301 301 301 301 301 302 303 301 307 306 306 308 310 310 309 308 309 310 310 315 316 316 316 316 316 315 317 316 318 318 320 319 320 322 323 324 325 325 326 326
299 299 300 301 301 301 301 301 301 302 305 306 305 305 305 303 306 309 309 310 311 309 309 311 312 318 315 315 314 314 315 314 314 316 317 318 318 319 322 323 323 323 325 325 326
299 300 300 301 301 301 301 301 302 307 307 305 305 304 304 305 308 309 309 308 310 309 308 309 314 313 311 313 314 314 314 314 314 317 315 316 317 318 320 321 321 323 324 325 325
303 301 301 301 301 301 301 301 307 307 305 306 304 305 305 309 309 310 309 309 308 308 306 309 310 316 314 314 313 314 314 314 316 318 318 317 318 320 320 321 320 322 323 324 325
302 302 302 302 301 301 301 302 305 303 304 307 307 307 306 305 307 308 310 309 308 309 308 309 311 312 315 315 315 316 315 316 317 318 319 318 319 319 319 319 321 322 323 325 325
302 302 302 301 301 302 303 303 303 304 303 306 306 307 307 306 308 307 309 309 309 308 308 309 311 312 316 317 318 318 318 317 318 318 318 319 318 319 320 320 321 323 324 325 327
302 302 302 302 302 302 302 302 303 305 306 307 308 308 308 307 309 307 310 310 311 308 308 308 310 312 315 317 318 318 319 320 320 318 317 318 321 319 320 320 320 322 324 326 326
302 302 303 302 302 303 302 302 303 306 305 305 309 310 308 308 309 309 307 311 313 311 308 308 309 310 313 316 318 317 318 320 318 316 317 318 320 320 319 321 321 320 323 324 323
302 302 303 303 303 301 303 303 306 307 308 307 307 306 306 311 311 311 309 309 313 311 310 310 312 310 312 314 317 316 316 316 316 316 318 318 320 320 320 321 321 320 323 323 323
301 301 301 301 302 302 302 304 306 306 306 306 306 306 307 307 310 311 312 308 311 314 312 311 310 312 312 313 313 314 313 313 315 317 319 318 319 320 320 320 321 321 322 323 324
301 301 302 304 303 302 304 303 305 305 305 306 306 306 306 307 306 308 311 312 309 311 314 314 312 312 312 312 312 313 313 314 316 319 322 319 322 321 320 321 323 322 322 323 324
300 301 303 304 303 302 303 303 302 306 305 306 305 306 306 306 306 307 308 313 312 312 312 314 315 314 314 313 314 313 314 313 316 319 320 320 320 320 320 320 321 321 323 323 324
301 302 303 304 303 303 304 302 303 304 303 304 306 306 306 305 306 307 308 311 311 311 311 312 314 314 313 314 313 313 313 314 314 320 323 321 322 322 322 322 324 323 322 323 324
301 301 302 304 303 303 299 301 303 303 304 303 306 306 305 306 308 306 306 309 310 309 310 312 312 314 313 314 312 310 314 313 313 315 319 321 321 319 321 321 323 322 323 324 325
300 296 302 304 303 302 300 303 303 304 303 304 305 305 305 306 307 307 306 307 308 309 308 310 311 314 314 313 314 313 311 312 316 315 315 318 320 318 320 320 321 322 324 324 325
300 300 302 303 304 301 302 304 304 304 304 305 305 305 304 304 306 307 308 309 307 308 308 311 312 314 314 315 313 314 312 313 312 312 317 316 317 318 319 320 321 322 324 325 325
300 297 301 303 301 303 303 302 303 304 304 304 303 303 303 304 304 305 307 307 307 307 308 310 309 314 315 315 313 314 314 313 311 312 316 317 318 321 321 320 320 323 324 325 325
301 297 301 302 300 300 301 302 304 305 305 304 304 304 305 306 307 307 308 309 308 307 309 309 309 312 313 315 316 315 315 314 314 314 315 317 320 320 320 320 321 324 324 325 325
301 301 300 300 300 301 299 303 303 304 306 306 306 306 305 305 306 307 308 309 310 309 310 309 308 309 311 315 317 317 315 315 315 314 314 316 315 317 319 321 324 325 325 325 325
300 300 300 301 300 300 298 302 303 302 303 305 306 305 305 305 306 306 306 306 307 309 310 310 308 308 309 310 314 317 317 315 315 314 315 316 317 318 321 321 323 325 326 326 327
Wind_Speed
21 23 24 25 27 26 27 26 25 24 24 26 26 26 25 28 27 26 30 23 19 13 13 16 9 18 16 11 10 8 2 5 6 7 7 5 2 1 6 8 15 18 22 23 22
18 20 22 23 23 25 27 29 29 27 26 26 27 28 27 28 31 33 29 25 24 22 22 17 16 18 11 11 10 7 5 10 8 7 7 5 2 12 7 20 25 19 22 27 30
19 19 18 19 21 23 24 25 28 30 27 26 27 27 27 24 28 34 26 22 26 25 24 22 14 20 15 10 14 9 10 15 11 21 10 8 17 9 5 8 20 21 38 38 31
20 20 20 21 21 20 21 23 24 25 27 27 27 27 26 18 8 1 14 18 19 23 23 26 21 15 9 9 21 4 17 26 21 20 6 9 12 19 20 30 35 36 35 31 27
20 20 21 22 22 22 21 19 20 22 24 24 24 22 22 14 24 7 16 12 4 4 15 25 28 22 8 8 11 8 12 19 24 26 25 27 18 19 26 44 39 35 30 35 31
20 21 21 21 21 22 21 21 20 20 22 23 21 16 17 17 31 30 37 27 18 14 5 23 21 29 9 10 7 8 17 17 12 20 28 19 24 12 25 41 34 37 37 37 32
22 23 24 24 25 25 25 24 23 22 22 21 18 14 23 44 24 20 25 38 35 31 25 16 20 20 11 2 9 6 4 8 12 19 8 24 20 10 33 35 31 35 36 35 34
21 22 23 25 25 26 26 26 27 27 28 22 18 12 19 25 27 34 34 26 29 28 24 24 15 24 9 5 3 1 2 4 5 6 8 11 17 10 36 31 34 32 30 33 32
24 24 23 24 24 26 26 27 28 27 22 18 11 10 18 15 26 33 34 40 35 27 21 12 21 15 6 6 2 1 9 7 7 9 5 9 16 17 22 20 27 36 38 38 41
23 24 26 26 25 26 28 27 20 13 8 3 6 4 18 9 12 14 12 20 29 15 21 20 12 6 5 6 14 7 6 6 12 1 4 12 15 19 29 24 28 30 31 36 38
24 24 24 24 27 27 25 27 6 3 8 8 8 17 14 14 17 8 11 13 22 16 9 12 7 19 27 20 9 15 9 10 15 2 3 8 9 18 17 12 19 28 33 37 28
24 25 25 24 24 26 22 8 4 7 12 21 30 35 38 38 19 19 14 12 12 15 10 6 27 20 12 18 19 9 14 21 16 6 4 11 13 17 15 14 22 25 32 33 25
23 24 24 25 25 19 9 5 4 17 6 16 27 18 28 26 24 33 18 12 7 12 24 26 18 13 18 15 15 19 20 18 17 5 5 6 10 16 13 11 21 26 25 25 26
23 23 24 26 17 15 17 4 11 13 4 7 5 7 8 11 10 41 27 12 7 18 16 19 22 18 17 24 19 22 17 14 14 3 5 4 6 12 12 11 7 18 20 18 19
23 24 23 21 23 15 8 11 6 1 4 2 3 2 13 11 9 12 43 25 9 10 10 12 18 28 23 21 19 12 10 12 9 5 1 3 4 7 5 9 11 10 24 18 14
24 23 24 24 14 11 5 6 2 1 8 4 4 10 5 7 13 8 18 29 13 8 11 9 11 20 23 13 19 6 6 4 2 3 4 10 7 6 5 9 8 6 8 11 10
25 22 20 17 13 8 7 2 2 4 6 3 7 13 11 15 6 2 7 19 13 10 10 5 10 2 8 8 8 10 9 1 3 1 5 7 8 15 9 9 12 12 15 8 10
27 22 10 11 7 4 3 2 6 4 7 11 9 10 9 14 12 14 6 5 20 4 8 8 4 12 8 9 10 17 12 7 7 4 4 7 8 7 18 24 23 14 15 12 18
29 14 8 13 4 8 4 3 3 4 5 10 8 5 5 10 7 10 6 6 5 12 5 9 10 5 19 9 17 6 15 9 4 2 1 4 5 7 7 8 7 9 11 20 22
26 7 13 11 6 6 1 4 3 3 8 8 2 4 5 10 8 10 7 12 10 12 5 5 2 12 15 12 17 14 11 7 4 7 5 4 3 5 7 9 6 6 12 19 21
13 3 13 4 5 1 1 4 4 10 11 4 2 3 6 9 6 3 4 15 17 19 8 3 1 4 11 18 14 5 9 3 6 5 5 1 6 7 8 7 9 8 15 22 26
11 3 10 9 2 2 2 3 7 7 11 5 4 6 8 10 5 5 5 5 16 18 10 4 2 5 15 7 18 20 9 9 9 7 3 3 6 4 7 7 8 10 21 24 25
8 5 7 14 2 2 4 6 4 4 4 3 4 5 5 7 5 9 3 2 11 11 11 9 4 2 4 3 4 22 13 12 5 5 15 4 5 2 3 6 7 9 22 24 23
7 4 6 6 4 4 6 4 5 8 7 4 4 4 3 9 7 6 9 4 5 14 16 10 4 4 6 2 5 17 19 17 7 5 7 20 5 5 7 7 6 11 20 25 25
8 2 4 4 4 9 6 4 7 7 3 11 4 1 5 4 6 6 3 7 5 2 3 6 4 3 10 13 9 1 18 20 20 13 6 5 15 6 10 11 9 18 22 24 25
7 5 6 6 8 8 3 3 5 4 3 5 3 8 7 5 5 12 6 2 4 7 3 6 4 6 5 12 9 10 7 20 24 20 13 6 9 8 8 4 10 23 26 27 30
7 7 5 7 5 3 3 4 6 13 9 11 7 10 10 10 7 15 14 17 13 7 4 2 4 5 4 10 8 8 21 11 10 15 15 15 15 5 4 7 11 22 31 34 34
Wind_Direction
302 296 297 294 293 294 291 289 286 283 279 278 278 277 279 279 271 265 260 265 268 249 235 238 231 218 206 219 199 182 104 249 237 174 244 193 340 170 311 309 304 290 284 283 282
317 309 304 300 298 294 290 290 289 288 284 278 276 275 275 280 282 271 260 262 260 254 251 233 224 204 196 208 201 178 170 227 201 191 235 189 232 298 325 316 296 289 301 297 283
346 342 336 324 308 300 296 293 289 288 283 279 278 276 275 279 291 279 279 252 244 247 240 230 212 208 211 199 200 200 211 232 271 245 257 294 289 312 274 281 275 295 305 307 295
341 340 337 336 334 327 312 301 296 293 292 287 279 277 273 275 238 198 196 186 211 226 220 210 194 190 193 207 216 189 232 238 249 265 273 257 289 297 274 266 286 296 301 300 285
340 338 335 333 331 327 325 322 312 300 297 294 290 286 281 250 234 231 200 185 113 181 220 203 188 197 181 198 222 227 238 243 257 273 281 280 267 258 284 288 291 294 297 299 291
332 331 329 326 325 324 324 322 317 312 304 300 297 291 277 253 254 249 241 238 239 263 236 205 200 206 214 213 182 225 232 248 266 273 275 278 271 274 269 279 286 291 293 293 292
328 327 326 325 323 321 319 318 315 312 311 304 296 290 262 247 248 255 245 243 245 251 249 229 210 183 214 288 251 251 266 268 236 244 248 270 277 249 275 280 278 282 287 287 289
325 323 323 322 321 320 317 310 307 312 303 288 275 278 257 268 269 256 246 242 235 244 248 239 239 234 220 247 315 300 161 262 190 224 246 207 277 264 273 270 270 273 280 289 285
325 325 322 321 320 317 316 310 315 309 304 283 249 244 274 272 261 269 248 241 238 239 239 224 220 218 174 172 347 326 258 256 298 213 212 186 279 267 270 274 278 281 287 284 286
328 325 323 324 322 321 319 318 319 316 345 98 189 262 258 259 293 295 291 238 225 231 219 217 206 179 182 162 212 196 246 229 246 319 173 269 266 272 273 266 261 277 283 289 282
332 329 326 323 322 324 325 333 348 323 329 267 243 234 257 277 313 264 270 198 196 196 172 176 194 214 206 208 198 225 225 238 253 197 232 251 271 275 280 263 263 274 285 288 284
333 332 330 326 323 320 323 342 74 340 300 289 277 253 271 270 285 270 229 156 185 195 148 161 219 215 187 202 209 199 228 245 275 230 226 271 273 283 286 268 266 274 283 291 292
333 332 330 326 325 321 346 360 337 333 259 286 262 249 245 246 229 252 223 186 178 183 193 201 221 189 196 200 197 216 217 233 245 358 257 300 289 286 284 262 275 275 282 297 286
332 332 331 325 324 318 324 220 322 326 302 267 218 243 244 225 237 236 219 200 188 198 192 230 227 192 195 209 190 219 209 240 251 162 244 113 290 292 302 288 247 287 302 297 292
322 326 324 323 303 306 316 276 286 164 310 243 177 124 325 190 312 235 215 218 201 176 170 211 191 205 205 202 190 231 185 208 226 212 306 248 273 271 309 290 285 284 294 293 275
329 323 319 316 294 309 319 333 137 129 245 273 68 341 340 253 262 287 180 212 222 200 236 204 207 200 211 201 200 178 94 71 73 130 252 238 198 251 217 227 268 271 291 296 241
337 331 322 308 288 296 305 283 148 211 318 32 347 347 337 349 343 337 238 193 196 187 207 172 224 209 155 146 166 165 125 286 310 242 222 203 194 245 261 238 232 253 265 249 196
338 332 342 351 304 243 152 97 215 248 248 359 340 330 319 15 335 353 336 188 224 249 182 190 189 192 178 185 168 182 172 161 189 203 244 193 210 245 219 233 240 249 265 214 183
340 345 21 342 326 147 166 197 231 355 9 344 339 1 331 13 342 346 332 356 26 238 255 192 228 168 175 174 164 190 210 162 130 227 132 227 265 299 223 218 230 228 197 193 181
343 3 9 357 116 139 121 258 274 5 336 337 355 331 341 341 320 351 323 32 2 356 348 268 232 214 198 176 196 185 138 171 205 195 227 287 251 219 200 215 196 203 200 186 177
345 24 14 28 153 121 176 258 293 293 334 293 323 316 308 305 331 337 287 310 352 354 336 308 171 271 148 202 173 148 178 141 160 152 171 180 259 216 200 199 211 220 196 181 181
2 26 357 348 2 0 293 288 309 290 307 264 252 229 264 293 314 320 261 257 336 336 343 302 309 249 207 171 194 199 180 165 195 192 173 168 262 251 226 215 203 200 184 184 189
346 306 346 10 31 320 292 280 261 289 308 305 307 326 312 310 321 321 35 129 297 332 347 340 305 170 349 168 208 201 199 189 86 106 207 161 247 334 264 221 234 190 181 185 185
351 350 352 8 9 336 336 288 316 299 310 302 275 275 292 283 258 275 289 303 265 300 313 320 269 256 211 245 122 200 201 190 148 156 177 221 241 252 283 242 204 182 188 185 186
5 329 349 328 334 322 304 290 310 340 329 332 314 303 350 294 319 272 355 342 263 309 340 324 279 291 280 272 297 39 204 208 212 212 174 207 207 217 223 222 209 192 179 183 187
1 346 317 284 309 324 319 264 301 311 286 291 238 305 299 251 256 286 308 260 250 135 131 326 282 337 299 281 279 272 256 216 210 217 232 227 246 212 255 137 168 176 180 187 196
355 330 293 287 314 325 262 330 306 318 292 232 278 300 298 290 296 284 280 267 251 292 163 164 316 351 292 336 315 259 238 231 231 216 200 209 225 172 208 205 201 186 188 196 202